THOR AGENA D R/B, 1245

Orbit data source: Space-Track

THOR AGENA D R/B, 1245 is space debris in LEO originally from a launch on Tue, 09 Mar 1965 UTC launched from the Air Force Western Test Range (AFWTR). Debris objects in space refer to the collection of defunct objects orbiting the Earth. Examples of debris include non-operational satellites, rocket bodies, and fragments generated from explosions, collisions, or faulty payload assembly.

Loading next visibility...
Identifier
1245, 1965-016J
Orbit
LEO
Country
Flag of USUS
Related business
Manufacturer
LMSC
Mission
Spacecraft
Bus & Motor
AGENA D, Unknown motor
Mass
600 kg wet, 600 kg dry
Launch date (UTC)
1965-03-09 (61 years ago)
Launch vehicle
Unknown
Launch site
Air Force Western Test Range (AFWTR)
Object type
Payload
Rocket body
Debris
Shape & HBR
Unknown
Radar Cross Section
Large (>1 m²)

Expand to show TLE details & history
Last TLE update: 19 hours ago

TLE from 19 hours ago
0 THOR AGENA D R/B
1  1245U 65016J   25290.32078961  .00000125  00000-0  12570-3 0  9990
2  1245  70.0764 263.6828 0021212   0.8421 359.2718 13.97601970 86367
Epoch: 2025-10-17T07:41Z
TLE epoch observation values (Epoch: 2025-10-17T07:41:56.222Z)
Latitude
-0°
Longitude
122.1307°
Altitude
888.986 km
Speed
7.416 km/s
True Right ascension
17h 34m 43s
True Declination
0° 00' 00"
Sunlit
Object was in daylight at epoch
Visualization orbit readout
Latitude
Unknown
Longitude
Unknown
Altitude
Unknown
Speed
Unknown
Apparent Right ascension
Unknown
Apparent Declination
Unknown
Sunlit
N/A
Visualization observer readout
Local Sidereal Time
21:41:37
Azimuth
Unknown
Elevation
Unknown
Doppler factor
Unknown
Orbital elements
Apogee altitude
915.583 km
Perigee altitude
884.706 km
Semi-major axis
7,278.282 km
Eccentricity
0.00212
Inclination
70.0764°
RAAN
263.6828°
Arg. of periapsis
0.8421°
True anomaly
359.2687°
Mean anomaly
359.2718°
Eccentric anomaly
359.27025°
Mean motion
3.49542 °/min
Orbital period
102.99 mins
BSTAR
0.0001257
Loading maneuver chart data...
Computing Atmospheric mass density...
Loading historical data...
Loading historical data...
Loading historical data...
Loading historical data...
Loading historical data...
Loading historical data...
Loading historical data...

Documentation

Showing up to 5 results
|